Time,TemperatureF,DewpointF,PressureIn,WindDirection,WindDirectionDegrees,WindSpeedMPH,WindSpeedGustMPH,Humidity,HourlyPrecipIn,Conditions,Clouds,dailyrainin,SoftwareType,DateUTC
2013-06-01 00:01:00,75.6,64.8,30.05,SW,226,0.0,1.0,69,0.00,,,0.00,meteohub,2013-06-01 04:01:00,
2013-06-01 00:06:00,75.6,64.8,30.05,South,184,0.0,2.0,69,0.00,,,0.00,meteohub,2013-06-01 04:06:00,
2013-06-01 00:11:00,75.4,64.6,30.05,WSW,248,0.0,2.0,69,0.00,,,0.00,meteohub,2013-06-01 04:11:00,
2013-06-01 00:16:00,75.2,64.4,30.05,WSW,248,0.0,3.0,69,0.00,,,0.00,meteohub,2013-06-01 04:16:00,
2013-06-01 00:21:00,75.0,64.6,30.05,WSW,248,0.0,3.0,70,0.00,,,0.00,meteohub,2013-06-01 04:21:00,
2013-06-01 00:26:00,74.8,64.4,30.05,West,263,0.0,2.0,70,0.00,,,0.00,meteohub,2013-06-01 04:26:00,
2013-06-01 00:31:00,74.8,64.8,30.04,West,263,0.0,2.0,71,0.00,,,0.00,meteohub,2013-06-01 04:31:00,
2013-06-01 00:36:00,74.7,64.6,30.04,West,263,0.0,2.0,71,0.00,,,0.00,meteohub,2013-06-01 04:36:00,
2013-06-01 00:41:00,74.7,64.6,30.04,SSW,197,0.0,1.0,71,0.00,,,0.00,meteohub,2013-06-01 04:41:00,
2013-06-01 00:46:00,74.7,64.6,30.04,SSW,197,0.0,4.0,71,0.00,,,0.00,meteohub,2013-06-01 04:46:00,
2013-06-01 00:51:00,74.7,64.6,30.04,SSW,194,0.0,4.0,71,0.00,,,0.00,meteohub,2013-06-01 04:51:00,
2013-06-01 00:56:00,74.7,64.6,30.04,SW,232,0.0,3.0,71,0.00,,,0.00,meteohub,2013-06-01 04:56:00,
2013-06-01 01:02:00,74.7,64.6,30.04,ESE,118,0.0,2.0,71,0.00,,,0.00,meteohub,2013-06-01 05:02:00,
2013-06-01 01:07:00,74.8,64.8,30.04,South,171,0.0,4.0,71,0.00,,,0.00,meteohub,2013-06-01 05:07:00,
2013-06-01 01:12:00,74.8,64.8,30.04,South,181,0.0,4.0,71,0.00,,,0.00,meteohub,2013-06-01 05:12:00,
2013-06-01 01:17:00,74.8,64.4,30.04,SW,234,0.0,4.0,70,0.00,,,0.00,meteohub,2013-06-01 05:17:00,
2013-06-01 01:22:00,74.8,64.8,30.04,West,265,2.0,2.0,71,0.00,,,0.00,meteohub,2013-06-01 05:22:00,
2013-06-01 01:27:00,74.7,64.6,30.04,West,265,0.0,2.0,71,0.00,,,0.00,meteohub,2013-06-01 05:27:00,
2013-06-01 01:32:00,74.7,64.6,30.04,SSE,158,0.0,2.0,71,0.00,,,0.00,meteohub,2013-06-01 05:32:00,
2013-06-01 01:37:00,74.5,64.9,30.03,SSE,158,0.0,2.0,72,0.00,,,0.00,meteohub,2013-06-01 05:37:00,
2013-06-01 01:42:00,74.3,64.8,30.03,SSE,156,0.0,2.0,72,0.00,,,0.00,meteohub,2013-06-01 05:42:00,
2013-06-01 01:47:00,74.1,64.9,30.03,South,180,0.0,2.0,73,0.00,,,0.00,meteohub,2013-06-01 05:47:00,
2013-06-01 01:52:00,73.9,64.8,30.03,SW,214,0.0,1.0,73,0.00,,,0.00,meteohub,2013-06-01 05:52:00,
2013-06-01 01:57:00,73.8,64.6,30.03,West,261,0.0,2.0,73,0.00,,,0.00,meteohub,2013-06-01 05:57:00,
2013-06-01 02:02:00,73.8,64.9,30.03,West,266,0.0,2.0,74,0.00,,,0.00,meteohub,2013-06-01 06:02:00,
2013-06-01 02:07:00,73.6,64.8,30.03,West,266,0.0,2.0,74,0.00,,,0.00,meteohub,2013-06-01 06:07:00,
2013-06-01 02:12:00,73.2,64.4,30.03,West,270,0.0,2.0,74,0.00,,,0.00,meteohub,2013-06-01 06:12:00,
2013-06-01 02:17:00,73.0,64.2,30.03,West,270,0.0,1.0,74,0.00,,,0.00,meteohub,2013-06-01 06:17:00,
2013-06-01 02:22:00,72.9,64.4,30.03,West,270,0.0,1.0,75,0.00,,,0.00,meteohub,2013-06-01 06:22:00,
2013-06-01 02:27:00,72.7,64.8,30.03,West,270,0.0,1.0,76,0.00,,,0.00,meteohub,2013-06-01 06:27:00,
2013-06-01 02:32:00,72.7,64.8,30.03,West,270,0.0,1.0,76,0.00,,,0.00,meteohub,2013-06-01 06:32:00,
2013-06-01 02:37:00,72.3,64.4,30.03,West,265,0.0,1.0,76,0.00,,,0.00,meteohub,2013-06-01 06:37:00,
2013-06-01 02:42:00,72.3,64.4,30.02,West,265,0.0,1.0,76,0.00,,,0.00,meteohub,2013-06-01 06:42:00,
2013-06-01 02:47:00,72.1,64.6,30.02,West,265,0.0,1.0,77,0.00,,,0.00,meteohub,2013-06-01 06:47:00,
2013-06-01 02:52:00,72.0,64.4,30.03,West,265,0.0,1.0,77,0.00,,,0.00,meteohub,2013-06-01 06:52:00,
2013-06-01 02:57:00,72.0,64.8,30.03,West,265,0.0,1.0,78,0.00,,,0.00,meteohub,2013-06-01 06:57:00,
2013-06-01 03:02:00,71.8,64.6,30.02,West,265,0.0,1.0,78,0.00,,,0.00,meteohub,2013-06-01 07:02:00,
2013-06-01 03:07:00,71.4,64.2,30.02,West,265,0.0,0.0,78,0.00,,,0.00,meteohub,2013-06-01 07:07:00,
2013-06-01 03:12:00,71.2,64.0,30.03,West,265,0.0,0.0,78,0.00,,,0.00,meteohub,2013-06-01 07:12:00,
2013-06-01 03:17:00,71.1,64.2,30.03,West,265,0.0,0.0,79,0.00,,,0.00,meteohub,2013-06-01 07:17:00,
2013-06-01 03:22:00,71.1,64.2,30.03,West,265,0.0,0.0,79,0.00,,,0.00,meteohub,2013-06-01 07:22:00,
2013-06-01 03:27:00,70.9,64.0,30.03,West,265,0.0,0.0,79,0.00,,,0.00,meteohub,2013-06-01 07:27:00,
2013-06-01 03:32:00,70.7,64.2,30.02,West,265,0.0,0.0,80,0.00,,,0.00,meteohub,2013-06-01 07:32:00,
2013-06-01 03:37:00,70.5,64.0,30.02,West,265,0.0,1.0,80,0.00,,,0.00,meteohub,2013-06-01 07:37:00,
2013-06-01 03:42:00,70.3,64.2,30.02,West,265,0.0,1.0,81,0.00,,,0.00,meteohub,2013-06-01 07:42:00,
2013-06-01 03:47:00,70.3,64.2,30.02,West,265,0.0,1.0,81,0.00,,,0.00,meteohub,2013-06-01 07:47:00,
2013-06-01 03:52:00,70.2,64.0,30.02,West,265,0.0,0.0,81,0.00,,,0.00,meteohub,2013-06-01 07:52:00,
2013-06-01 03:57:00,70.0,63.9,30.02,West,265,0.0,0.0,81,0.00,,,0.00,meteohub,2013-06-01 07:57:00,
2013-06-01 04:02:00,70.0,63.9,30.02,West,265,0.0,0.0,81,0.00,,,0.00,meteohub,2013-06-01 08:02:00,
2013-06-01 04:07:00,69.8,64.0,30.02,West,265,0.0,0.0,82,0.00,,,0.00,meteohub,2013-06-01 08:07:00,
2013-06-01 04:12:00,69.6,63.9,30.03,West,265,0.0,0.0,82,0.00,,,0.00,meteohub,2013-06-01 08:12:00,
2013-06-01 04:17:00,69.4,63.7,30.03,West,265,0.0,0.0,82,0.00,,,0.00,meteohub,2013-06-01 08:17:00,
2013-06-01 04:22:00,69.4,63.7,30.03,West,265,0.0,0.0,82,0.00,,,0.00,meteohub,2013-06-01 08:22:00,
2013-06-01 04:27:00,69.3,63.9,30.02,West,265,0.0,0.0,83,0.00,,,0.00,meteohub,2013-06-01 08:27:00,
2013-06-01 04:32:00,69.1,63.7,30.02,West,265,0.0,0.0,83,0.00,,,0.00,meteohub,2013-06-01 08:32:00,
2013-06-01 04:37:00,68.9,63.5,30.03,West,265,0.0,0.0,83,0.00,,,0.00,meteohub,2013-06-01 08:37:00,
2013-06-01 04:42:00,68.7,63.3,30.03,West,265,0.0,0.0,83,0.00,,,0.00,meteohub,2013-06-01 08:42:00,
2013-06-01 04:47:00,68.7,63.3,30.03,West,265,0.0,0.0,83,0.00,,,0.00,meteohub,2013-06-01 08:47:00,
2013-06-01 04:52:00,68.5,63.5,30.03,West,265,0.0,0.0,84,0.00,,,0.00,meteohub,2013-06-01 08:52:00,
2013-06-01 04:57:00,68.5,63.5,30.03,West,265,0.0,0.0,84,0.00,,,0.00,meteohub,2013-06-01 08:57:00,
2013-06-01 05:02:00,68.4,63.7,30.03,West,265,0.0,0.0,85,0.00,,,0.00,meteohub,2013-06-01 09:02:00,
2013-06-01 05:07:00,68.4,63.7,30.03,West,265,0.0,0.0,85,0.00,,,0.00,meteohub,2013-06-01 09:07:00,
2013-06-01 05:12:00,68.4,63.7,30.03,West,265,0.0,0.0,85,0.00,,,0.00,meteohub,2013-06-01 09:12:00,
2013-06-01 05:17:00,68.4,63.7,30.03,West,265,0.0,0.0,85,0.00,,,0.00,meteohub,2013-06-01 09:17:00,
2013-06-01 05:22:00,68.2,63.5,30.03,West,265,0.0,0.0,85,0.00,,,0.00,meteohub,2013-06-01 09:22:00,
2013-06-01 05:27:00,68.2,63.5,30.03,West,265,0.0,0.0,85,0.00,,,0.00,meteohub,2013-06-01 09:27:00,
2013-06-01 05:32:00,68.0,63.3,30.03,West,265,0.0,0.0,85,0.00,,,0.00,meteohub,2013-06-01 09:32:00,
2013-06-01 05:37:00,67.8,63.1,30.03,West,265,0.0,0.0,85,0.00,,,0.00,meteohub,2013-06-01 09:37:00,
2013-06-01 05:42:00,67.8,63.1,30.03,West,265,0.0,0.0,85,0.00,,,0.00,meteohub,2013-06-01 09:42:00,
2013-06-01 05:46:00,67.6,63.3,30.03,West,265,0.0,0.0,86,0.00,,,0.00,meteohub,2013-06-01 09:46:00,
2013-06-01 05:47:00,67.6,63.3,30.03,West,265,0.0,0.0,86,0.00,,,0.00,meteohub,2013-06-01 09:47:00,
2013-06-01 05:52:00,67.6,63.3,30.03,West,265,0.0,0.0,86,0.00,,,0.00,meteohub,2013-06-01 09:52:00,
2013-06-01 05:57:00,67.5,63.5,30.04,West,265,0.0,0.0,87,0.00,,,0.00,meteohub,2013-06-01 09:57:00,
2013-06-01 06:02:00,67.5,63.5,30.04,West,265,0.0,0.0,87,0.00,,,0.00,meteohub,2013-06-01 10:02:00,
2013-06-01 06:07:00,67.3,63.3,30.04,West,265,0.0,2.0,87,0.00,,,0.00,meteohub,2013-06-01 10:07:00,
2013-06-01 06:12:00,67.3,63.7,30.04,West,265,0.0,2.0,88,0.00,,,0.00,meteohub,2013-06-01 10:12:00,
2013-06-01 06:17:00,67.3,63.3,30.04,West,265,0.0,2.0,87,0.00,,,0.00,meteohub,2013-06-01 10:17:00,
2013-06-01 06:22:00,67.5,63.9,30.04,WNW,297,1.0,0.0,88,0.00,,,0.00,meteohub,2013-06-01 10:22:00,
2013-06-01 06:27:00,67.6,64.0,30.04,SW,231,0.0,2.0,88,0.00,,,0.00,meteohub,2013-06-01 10:27:00,
2013-06-01 06:32:00,67.6,64.0,30.04,SW,231,0.0,2.0,88,0.00,,,0.00,meteohub,2013-06-01 10:32:00,
2013-06-01 06:37:00,67.6,64.0,30.04,SW,233,1.0,2.0,88,0.00,,,0.00,meteohub,2013-06-01 10:37:00,
2013-06-01 06:42:00,67.6,63.7,30.04,SW,233,0.0,1.0,87,0.00,,,0.00,meteohub,2013-06-01 10:42:00,
2013-06-01 06:47:00,67.8,64.2,30.04,SW,233,0.0,1.0,88,0.00,,,0.00,meteohub,2013-06-01 10:47:00,
2013-06-01 06:52:00,67.8,64.2,30.04,SW,233,0.0,1.0,88,0.00,,,0.00,meteohub,2013-06-01 10:52:00,
2013-06-01 06:57:00,67.8,64.2,30.04,SW,233,0.0,0.0,88,0.00,,,0.00,meteohub,2013-06-01 10:57:00,
2013-06-01 07:02:00,68.0,64.4,30.04,SW,233,0.0,0.0,88,0.00,,,0.00,meteohub,2013-06-01 11:02:00,
2013-06-01 07:07:00,68.2,64.4,30.04,SW,227,0.0,2.0,88,0.00,,,0.00,meteohub,2013-06-01 11:07:00,
2013-06-01 07:12:00,68.4,64.6,30.05,SW,227,0.0,2.0,88,0.00,,,0.00,meteohub,2013-06-01 11:12:00,
2013-06-01 07:17:00,68.5,64.6,30.05,SW,219,0.0,2.0,87,0.00,,,0.00,meteohub,2013-06-01 11:17:00,
2013-06-01 07:22:00,68.7,64.8,30.05,SW,219,0.0,2.0,87,0.00,,,0.00,meteohub,2013-06-01 11:22:00,
2013-06-01 07:27:00,69.1,65.1,30.05,NNW,330,0.0,2.0,87,0.00,,,0.00,meteohub,2013-06-01 11:27:00,
2013-06-01 07:32:00,69.4,65.1,30.04,SSW,194,0.0,6.0,86,0.00,,,0.00,meteohub,2013-06-01 11:32:00,
2013-06-01 07:37:00,69.6,64.9,30.04,WSW,250,2.0,6.0,85,0.00,,,0.00,meteohub,2013-06-01 11:37:00,
2013-06-01 07:42:00,70.2,65.5,30.04,West,275,0.0,6.0,85,0.00,,,0.00,meteohub,2013-06-01 11:42:00,
2013-06-01 07:47:00,70.3,65.3,30.05,South,172,1.0,2.0,84,0.00,,,0.00,meteohub,2013-06-01 11:47:00,
2013-06-01 07:52:00,70.5,65.5,30.04,WSW,254,3.0,3.0,84,0.00,,,0.00,meteohub,2013-06-01 11:52:00,
2013-06-01 07:57:00,71.1,65.7,30.04,SW,224,0.0,4.0,83,0.00,,,0.00,meteohub,2013-06-01 11:57:00,
2013-06-01 08:02:00,71.2,65.5,30.04,West,267,0.0,4.0,82,0.00,,,0.00,meteohub,2013-06-01 12:02:00,
2013-06-01 08:07:00,71.8,65.7,30.04,South,174,0.0,5.0,81,0.00,,,0.00,meteohub,2013-06-01 12:07:00,
2013-06-01 08:12:00,72.1,65.7,30.04,NE,51,0.0,5.0,80,0.00,,,0.00,meteohub,2013-06-01 12:12:00,
2013-06-01 08:17:00,72.7,65.8,30.04,WNW,301,1.0,5.0,79,0.00,,,0.00,meteohub,2013-06-01 12:17:00,
2013-06-01 08:22:00,72.9,66.4,30.04,WNW,301,0.0,4.0,80,0.00,,,0.00,meteohub,2013-06-01 12:22:00,
2013-06-01 08:27:00,73.2,66.4,30.04,South,186,1.0,4.0,79,0.00,,,0.00,meteohub,2013-06-01 12:27:00,
2013-06-01 08:32:00,74.1,66.7,30.04,SSE,161,0.0,3.0,78,0.00,,,0.00,meteohub,2013-06-01 12:32:00,
2013-06-01 08:37:00,75.0,67.3,30.05,WNW,296,1.0,3.0,77,0.00,,,0.00,meteohub,2013-06-01 12:37:00,
2013-06-01 08:42:00,75.7,67.3,30.05,NNW,337,0.0,5.0,75,0.00,,,0.00,meteohub,2013-06-01 12:42:00,
2013-06-01 08:47:00,76.5,68.0,30.05,SW,219,0.0,5.0,75,0.00,,,0.00,meteohub,2013-06-01 12:47:00,
2013-06-01 08:51:00,77.2,67.5,30.05,West,272,3.0,5.0,72,0.00,,,0.00,meteohub,2013-06-01 12:51:00,
2013-06-01 08:57:00,77.5,67.5,30.05,South,182,0.0,5.0,71,0.00,,,0.00,meteohub,2013-06-01 12:57:00,
2013-06-01 09:02:00,78.1,67.8,30.04,North,355,0.0,4.0,71,0.00,,,0.00,meteohub,2013-06-01 13:02:00,
2013-06-01 09:07:00,78.8,69.1,30.04,SSE,160,0.0,4.0,72,0.00,,,0.00,meteohub,2013-06-01 13:07:00,
2013-06-01 09:12:00,79.9,68.7,30.04,SSE,157,1.0,4.0,69,0.00,,,0.00,meteohub,2013-06-01 13:12:00,
2013-06-01 09:17:00,80.4,68.0,30.04,SW,218,2.0,4.0,66,0.00,,,0.00,meteohub,2013-06-01 13:17:00,
2013-06-01 09:22:00,80.4,68.5,30.04,East,80,0.0,4.0,67,0.00,,,0.00,meteohub,2013-06-01 13:22:00,
2013-06-01 09:27:00,81.1,69.1,30.04,SSE,148,0.0,4.0,67,0.00,,,0.00,meteohub,2013-06-01 13:27:00,
2013-06-01 09:32:00,81.9,68.9,30.04,ESE,122,0.0,5.0,65,0.00,,,0.00,meteohub,2013-06-01 13:32:00,
2013-06-01 09:37:00,81.9,68.9,30.04,NW,313,2.0,5.0,65,0.00,,,0.00,meteohub,2013-06-01 13:37:00,
2013-06-01 09:42:00,81.1,68.2,30.04,NNW,346,1.0,4.0,65,0.00,,,0.00,meteohub,2013-06-01 13:42:00,
2013-06-01 09:47:00,81.0,68.5,30.04,NW,311,2.0,4.0,66,0.00,,,0.00,meteohub,2013-06-01 13:47:00,
2013-06-01 09:52:00,81.0,68.5,30.04,SW,219,0.0,6.0,66,0.00,,,0.00,meteohub,2013-06-01 13:52:00,
2013-06-01 09:57:00,81.1,67.3,30.04,NE,44,1.0,6.0,63,0.00,,,0.00,meteohub,2013-06-01 13:57:00,
2013-06-01 10:02:00,81.1,68.7,30.04,WNW,301,1.0,6.0,66,0.00,,,0.00,meteohub,2013-06-01 14:02:00,
2013-06-01 10:07:00,81.5,68.5,30.04,NNE,13,0.0,5.0,65,0.00,,,0.00,meteohub,2013-06-01 14:07:00,
2013-06-01 10:12:00,81.9,69.8,30.03,WNW,300,3.0,6.0,67,0.00,,,0.00,meteohub,2013-06-01 14:12:00,
2013-06-01 10:17:00,81.7,67.8,30.03,North,10,1.0,6.0,63,0.00,,,0.00,meteohub,2013-06-01 14:17:00,
2013-06-01 10:22:00,81.9,68.0,30.02,North,0,0.0,6.0,63,0.00,,,0.00,meteohub,2013-06-01 14:22:00,
2013-06-01 10:27:00,82.8,68.9,30.02,SW,221,0.0,5.0,63,0.00,,,0.00,meteohub,2013-06-01 14:27:00,
2013-06-01 10:32:00,83.1,68.7,30.02,NW,304,1.0,4.0,62,0.00,,,0.00,meteohub,2013-06-01 14:32:00,
2013-06-01 10:37:00,83.3,68.4,30.03,NNW,332,0.0,5.0,61,0.00,,,0.00,meteohub,2013-06-01 14:37:00,
2013-06-01 10:42:00,83.3,69.8,30.03,WNW,302,2.0,5.0,64,0.00,,,0.00,meteohub,2013-06-01 14:42:00,
2013-06-01 10:47:00,83.5,69.1,30.03,ENE,69,1.0,5.0,62,0.00,,,0.00,meteohub,2013-06-01 14:47:00,
2013-06-01 10:52:00,83.7,69.3,30.03,East,97,2.0,5.0,62,0.00,,,0.00,meteohub,2013-06-01 14:52:00,
2013-06-01 10:57:00,84.0,70.0,30.03,SE,130,1.0,4.0,63,0.00,,,0.00,meteohub,2013-06-01 14:57:00,
2013-06-01 11:01:00,84.6,68.2,30.03,NW,314,3.0,4.0,58,0.00,,,0.00,meteohub,2013-06-01 15:01:00,
2013-06-01 11:06:00,84.0,69.1,30.03,SSW,199,0.0,6.0,61,0.00,,,0.00,meteohub,2013-06-01 15:06:00,
2013-06-01 11:11:00,84.9,71.8,30.03,SSW,200,0.0,6.0,65,0.00,,,0.00,meteohub,2013-06-01 15:11:00,
2013-06-01 11:17:00,85.6,70.7,30.03,ENE,60,0.0,6.0,61,0.00,,,0.00,meteohub,2013-06-01 15:17:00,
2013-06-01 11:22:00,86.5,68.9,30.02,SE,134,1.0,5.0,56,0.00,,,0.00,meteohub,2013-06-01 15:22:00,
2013-06-01 11:27:00,87.1,70.5,30.03,SSW,193,0.0,5.0,58,0.00,,,0.00,meteohub,2013-06-01 15:27:00,
2013-06-01 11:32:00,87.3,69.6,30.02,WNW,298,0.0,6.0,56,0.00,,,0.00,meteohub,2013-06-01 15:32:00,
2013-06-01 11:37:00,86.7,69.1,30.02,NW,304,1.0,6.0,56,0.00,,,0.00,meteohub,2013-06-01 15:37:00,
2013-06-01 11:42:00,86.4,69.8,30.02,North,0,1.0,6.0,58,0.00,,,0.00,meteohub,2013-06-01 15:42:00,
2013-06-01 11:47:00,85.8,67.8,30.02,WNW,302,0.0,6.0,55,0.00,,,0.00,meteohub,2013-06-01 15:47:00,
2013-06-01 11:52:00,86.0,68.9,30.02,South,181,2.0,5.0,57,0.00,,,0.00,meteohub,2013-06-01 15:52:00,
2013-06-01 11:57:00,86.7,71.2,30.02,ESE,115,2.0,5.0,60,0.00,,,0.00,meteohub,2013-06-01 15:57:00,
2013-06-01 12:02:00,87.6,70.0,30.02,SSE,163,1.0,5.0,56,0.00,,,0.00,meteohub,2013-06-01 16:02:00,
2013-06-01 12:07:00,88.2,70.0,30.02,NNW,338,3.0,5.0,55,0.00,,,0.00,meteohub,2013-06-01 16:07:00,
2013-06-01 12:12:00,87.3,70.2,30.02,NNW,329,1.0,5.0,57,0.00,,,0.00,meteohub,2013-06-01 16:12:00,
2013-06-01 12:17:00,87.3,69.1,30.01,WSW,237,0.0,5.0,55,0.00,,,0.00,meteohub,2013-06-01 16:17:00,
2013-06-01 12:22:00,87.6,70.0,30.01,SSE,167,3.0,5.0,56,0.00,,,0.00,meteohub,2013-06-01 16:22:00,
2013-06-01 12:27:00,88.3,69.6,30.01,SE,142,1.0,5.0,54,0.00,,,0.00,meteohub,2013-06-01 16:27:00,
2013-06-01 12:32:00,89.1,68.5,30.01,South,187,1.0,5.0,51,0.00,,,0.00,meteohub,2013-06-01 16:32:00,
2013-06-01 12:37:00,89.2,69.8,30.01,NW,322,2.0,5.0,53,0.00,,,0.00,meteohub,2013-06-01 16:37:00,
2013-06-01 12:42:00,88.3,68.5,30.01,West,273,0.0,3.0,52,0.00,,,0.00,meteohub,2013-06-01 16:42:00,
2013-06-01 12:47:00,87.6,70.0,30.00,WNW,286,1.0,5.0,56,0.00,,,0.00,meteohub,2013-06-01 16:47:00,
2013-06-01 12:52:00,87.4,71.4,30.00,East,101,3.0,5.0,59,0.00,,,0.00,meteohub,2013-06-01 16:52:00,
2013-06-01 12:57:00,87.8,68.5,30.00,SSW,204,3.0,5.0,53,0.00,,,0.00,meteohub,2013-06-01 16:57:00,
2013-06-01 13:02:00,88.2,68.9,30.00,ENE,67,2.0,5.0,53,0.00,,,0.00,meteohub,2013-06-01 17:02:00,
2013-06-01 13:07:00,88.5,69.8,29.99,ENE,78,3.0,8.0,54,0.00,,,0.00,meteohub,2013-06-01 17:07:00,
2013-06-01 13:12:00,88.5,68.0,29.99,SSW,202,1.0,8.0,51,0.00,,,0.00,meteohub,2013-06-01 17:12:00,
2013-06-01 13:17:00,88.7,70.0,29.99,North,0,0.0,8.0,54,0.00,,,0.00,meteohub,2013-06-01 17:17:00,
2013-06-01 13:22:00,88.9,69.6,29.99,NW,321,0.0,5.0,53,0.00,,,0.00,meteohub,2013-06-01 17:22:00,
2013-06-01 13:27:00,88.3,68.0,29.99,NW,305,0.0,3.0,51,0.00,,,0.00,meteohub,2013-06-01 17:27:00,
2013-06-01 13:32:00,88.5,68.7,29.99,SE,128,0.0,8.0,52,0.00,,,0.00,meteohub,2013-06-01 17:32:00,
2013-06-01 13:37:00,88.5,68.0,29.98,SSW,211,3.0,9.0,51,0.00,,,0.00,meteohub,2013-06-01 17:37:00,
2013-06-01 13:42:00,88.5,67.5,29.98,SW,225,2.0,9.0,50,0.00,,,0.00,meteohub,2013-06-01 17:42:00,
2013-06-01 13:47:00,88.5,68.0,29.98,South,182,0.0,9.0,51,0.00,,,0.00,meteohub,2013-06-01 17:47:00,
2013-06-01 13:52:00,88.5,70.3,29.98,ENE,69,3.0,7.0,55,0.00,,,0.00,meteohub,2013-06-01 17:52:00,
2013-06-01 13:57:00,88.5,72.3,29.98,NNW,327,1.0,7.0,59,0.00,,,0.00,meteohub,2013-06-01 17:57:00,
2013-06-01 14:02:00,88.9,70.7,29.98,South,186,2.0,4.0,55,0.00,,,0.00,meteohub,2013-06-01 18:02:00,
2013-06-01 14:07:00,88.9,69.6,29.98,South,184,2.0,5.0,53,0.00,,,0.00,meteohub,2013-06-01 18:07:00,
2013-06-01 14:12:00,88.9,70.2,29.98,North,9,1.0,7.0,54,0.00,,,0.00,meteohub,2013-06-01 18:12:00,
2013-06-01 14:17:00,88.7,70.0,29.98,South,182,0.0,7.0,54,0.00,,,0.00,meteohub,2013-06-01 18:17:00,
2013-06-01 14:22:00,88.5,70.9,29.98,South,169,0.0,6.0,56,0.00,,,0.00,meteohub,2013-06-01 18:22:00,
2013-06-01 14:27:00,88.0,70.3,29.98,SE,132,1.0,5.0,56,0.00,,,0.00,meteohub,2013-06-01 18:27:00,
2013-06-01 14:32:00,87.6,71.1,29.98,ENE,66,1.0,5.0,58,0.00,,,0.00,meteohub,2013-06-01 18:32:00,
2013-06-01 14:37:00,87.8,69.1,29.98,WNW,290,2.0,5.0,54,0.00,,,0.00,meteohub,2013-06-01 18:37:00,
2013-06-01 14:42:00,87.4,69.3,29.98,SW,228,1.0,8.0,55,0.00,,,0.00,meteohub,2013-06-01 18:42:00,
2013-06-01 14:47:00,87.4,69.8,29.97,SE,134,0.0,8.0,56,0.00,,,0.00,meteohub,2013-06-01 18:47:00,
2013-06-01 14:52:00,87.4,69.3,29.98,SW,233,2.0,8.0,55,0.00,,,0.00,meteohub,2013-06-01 18:52:00,
2013-06-01 14:57:00,88.0,71.8,29.97,NW,324,3.0,6.0,59,0.00,,,0.00,meteohub,2013-06-01 18:57:00,
2013-06-01 15:02:00,88.5,70.9,29.97,WSW,254,2.0,6.0,56,0.00,,,0.00,meteohub,2013-06-01 19:02:00,
2013-06-01 15:07:00,88.9,70.7,29.97,WNW,293,0.0,6.0,55,0.00,,,0.00,meteohub,2013-06-01 19:07:00,
2013-06-01 15:12:00,88.5,69.8,29.97,NNW,333,0.0,7.0,54,0.00,,,0.00,meteohub,2013-06-01 19:12:00,
2013-06-01 15:17:00,88.2,69.4,29.97,SW,215,0.0,12.0,54,0.00,,,0.00,meteohub,2013-06-01 19:17:00,
2013-06-01 15:22:00,88.0,69.8,29.97,NE,46,0.0,12.0,55,0.00,,,0.00,meteohub,2013-06-01 19:22:00,
2013-06-01 15:27:00,88.3,70.7,29.96,South,169,4.0,12.0,56,0.00,,,0.00,meteohub,2013-06-01 19:27:00,
2013-06-01 15:32:00,88.9,69.6,29.96,ESE,112,2.0,6.0,53,0.00,,,0.00,meteohub,2013-06-01 19:32:00,
2013-06-01 15:37:00,89.1,69.6,29.96,NW,325,3.0,6.0,53,0.00,,,0.00,meteohub,2013-06-01 19:37:00,
2013-06-01 15:42:00,89.2,69.8,29.96,SW,215,4.0,6.0,53,0.00,,,0.00,meteohub,2013-06-01 19:42:00,
2013-06-01 15:47:00,89.6,68.5,29.96,SE,130,1.0,5.0,50,0.00,,,0.00,meteohub,2013-06-01 19:47:00,
2013-06-01 15:52:00,89.8,69.8,29.96,West,267,2.0,7.0,52,0.00,,,0.00,meteohub,2013-06-01 19:52:00,
2013-06-01 15:57:00,89.2,69.8,29.96,ESE,118,0.0,7.0,53,0.00,,,0.00,meteohub,2013-06-01 19:57:00,
2013-06-01 16:02:00,89.2,71.4,29.95,South,172,1.0,7.0,56,0.00,,,0.00,meteohub,2013-06-01 20:02:00,
2013-06-01 16:07:00,89.4,69.4,29.95,SSE,165,1.0,5.0,52,0.00,,,0.00,meteohub,2013-06-01 20:07:00,
2013-06-01 16:12:00,89.2,69.3,29.95,East,98,0.0,5.0,52,0.00,,,0.00,meteohub,2013-06-01 20:12:00,
2013-06-01 16:17:00,89.4,69.4,29.95,SSE,160,0.0,5.0,52,0.00,,,0.00,meteohub,2013-06-01 20:17:00,
2013-06-01 16:22:00,89.6,69.6,29.94,South,184,1.0,8.0,52,0.00,,,0.00,meteohub,2013-06-01 20:22:00,
2013-06-01 16:27:00,89.6,70.7,29.94,WSW,249,4.0,8.0,54,0.00,,,0.00,meteohub,2013-06-01 20:27:00,
2013-06-01 16:32:00,89.8,70.3,29.94,South,173,3.0,8.0,53,0.00,,,0.00,meteohub,2013-06-01 20:32:00,
2013-06-01 16:37:00,90.1,68.9,29.94,SW,229,5.0,5.0,50,0.00,,,0.00,meteohub,2013-06-01 20:37:00,
2013-06-01 16:42:00,90.1,68.4,29.94,South,171,2.0,7.0,49,0.00,,,0.00,meteohub,2013-06-01 20:42:00,
2013-06-01 16:47:00,90.0,70.0,29.94,West,275,1.0,7.0,52,0.00,,,0.00,meteohub,2013-06-01 20:47:00,
2013-06-01 16:52:00,90.0,70.5,29.94,SSW,208,4.0,7.0,53,0.00,,,0.00,meteohub,2013-06-01 20:52:00,
2013-06-01 16:57:00,90.0,69.4,29.94,North,5,0.0,5.0,51,0.00,,,0.00,meteohub,2013-06-01 20:57:00,
2013-06-01 17:02:00,90.0,70.0,29.94,NNW,347,0.0,6.0,52,0.00,,,0.00,meteohub,2013-06-01 21:02:00,
2013-06-01 17:07:00,89.8,71.4,29.94,WSW,241,2.0,6.0,55,0.00,,,0.00,meteohub,2013-06-01 21:07:00,
2013-06-01 17:12:00,89.6,69.6,29.94,West,275,1.0,6.0,52,0.00,,,0.00,meteohub,2013-06-01 21:12:00,
2013-06-01 17:17:00,90.0,68.9,29.94,NW,311,3.0,4.0,50,0.00,,,0.00,meteohub,2013-06-01 21:17:00,
2013-06-01 17:22:00,90.0,70.5,29.94,East,86,0.0,8.0,53,0.00,,,0.00,meteohub,2013-06-01 21:22:00,
2013-06-01 17:27:00,90.0,70.0,29.94,SW,234,1.0,8.0,52,0.00,,,0.00,meteohub,2013-06-01 21:27:00,
2013-06-01 17:32:00,90.0,69.4,29.94,ENE,66,0.0,6.0,51,0.00,,,0.00,meteohub,2013-06-01 21:32:00,
2013-06-01 17:37:00,89.8,69.8,29.93,WSW,257,1.0,6.0,52,0.00,,,0.00,meteohub,2013-06-01 21:37:00,
2013-06-01 17:42:00,89.4,69.4,29.93,SW,214,0.0,6.0,52,0.00,,,0.00,meteohub,2013-06-01 21:42:00,
2013-06-01 17:47:00,88.7,69.4,29.93,South,186,2.0,7.0,53,0.00,,,0.00,meteohub,2013-06-01 21:47:00,
2013-06-01 17:52:00,88.3,68.5,29.93,West,261,1.0,7.0,52,0.00,,,0.00,meteohub,2013-06-01 21:52:00,
2013-06-01 17:57:00,88.2,68.9,29.93,SSE,150,0.0,7.0,53,0.00,,,0.00,meteohub,2013-06-01 21:57:00,
2013-06-01 18:02:00,88.0,68.7,29.93,NW,321,0.0,5.0,53,0.00,,,0.00,meteohub,2013-06-01 22:02:00,
2013-06-01 18:07:00,88.2,70.0,29.93,NNW,327,3.0,5.0,55,0.00,,,0.00,meteohub,2013-06-01 22:07:00,
2013-06-01 18:12:00,88.3,68.5,29.93,SW,217,3.0,5.0,52,0.00,,,0.00,meteohub,2013-06-01 22:12:00,
2013-06-01 18:17:00,88.5,68.7,29.93,WNW,288,2.0,6.0,52,0.00,,,0.00,meteohub,2013-06-01 22:17:00,
2013-06-01 18:22:00,88.5,69.3,29.92,WNW,285,3.0,6.0,53,0.00,,,0.00,meteohub,2013-06-01 22:22:00,
2013-06-01 18:27:00,88.3,68.0,29.92,SSW,210,0.0,6.0,51,0.00,,,0.00,meteohub,2013-06-01 22:27:00,
2013-06-01 18:32:00,88.3,68.5,29.93,South,184,4.0,6.0,52,0.00,,,0.00,meteohub,2013-06-01 22:32:00,
2013-06-01 18:37:00,88.0,68.2,29.93,SSW,195,0.0,6.0,52,0.00,,,0.00,meteohub,2013-06-01 22:37:00,
2013-06-01 18:42:00,87.6,68.9,29.93,SSE,162,2.0,6.0,54,0.00,,,0.00,meteohub,2013-06-01 22:42:00,
2013-06-01 18:47:00,87.4,68.7,29.93,South,186,0.0,5.0,54,0.00,,,0.00,meteohub,2013-06-01 22:47:00,
2013-06-01 18:52:00,87.4,69.3,29.93,South,186,0.0,5.0,55,0.00,,,0.00,meteohub,2013-06-01 22:52:00,
2013-06-01 18:57:00,87.1,67.3,29.93,SE,132,4.0,5.0,52,0.00,,,0.00,meteohub,2013-06-01 22:57:00,
2013-06-01 19:02:00,86.9,67.6,29.93,NNW,331,2.0,6.0,53,0.00,,,0.00,meteohub,2013-06-01 23:02:00,
2013-06-01 19:07:00,86.5,67.5,29.93,SW,225,1.0,6.0,53,0.00,,,0.00,meteohub,2013-06-01 23:07:00,
2013-06-01 19:12:00,86.4,68.4,29.93,North,355,3.0,6.0,55,0.00,,,0.00,meteohub,2013-06-01 23:12:00,
2013-06-01 19:17:00,86.2,67.6,29.93,SSW,201,2.0,5.0,54,0.00,,,0.00,meteohub,2013-06-01 23:17:00,
2013-06-01 19:22:00,86.0,67.5,29.93,SSW,202,1.0,7.0,54,0.00,,,0.00,meteohub,2013-06-01 23:22:00,
2013-06-01 19:27:00,85.8,67.8,29.93,SSW,203,0.0,7.0,55,0.00,,,0.00,meteohub,2013-06-01 23:27:00,
2013-06-01 19:32:00,85.6,68.7,29.93,SSW,206,1.0,7.0,57,0.00,,,0.00,meteohub,2013-06-01 23:32:00,
2013-06-01 19:37:00,85.5,67.5,29.93,SSW,194,2.0,4.0,55,0.00,,,0.00,meteohub,2013-06-01 23:37:00,
2013-06-01 19:42:00,85.5,68.0,29.93,South,183,1.0,4.0,56,0.00,,,0.00,meteohub,2013-06-01 23:42:00,
2013-06-01 19:47:00,85.3,68.4,29.93,SSE,163,0.0,6.0,57,0.00,,,0.00,meteohub,2013-06-01 23:47:00,
2013-06-01 19:52:00,85.1,67.6,29.93,WSW,254,0.0,6.0,56,0.00,,,0.00,meteohub,2013-06-01 23:52:00,
2013-06-01 19:57:00,84.9,68.0,29.93,NW,317,0.0,4.0,57,0.00,,,0.00,meteohub,2013-06-01 23:57:00,
2013-06-01 20:02:00,84.6,68.2,29.93,NNE,13,0.0,4.0,58,0.00,,,0.00,meteohub,2013-06-02 00:02:00,
2013-06-01 20:07:00,84.4,67.5,29.93,SW,220,0.0,5.0,57,0.00,,,0.00,meteohub,2013-06-02 00:07:00,
2013-06-01 20:12:00,84.0,68.2,29.93,WSW,248,0.0,5.0,59,0.00,,,0.00,meteohub,2013-06-02 00:12:00,
2013-06-01 20:17:00,83.8,68.0,29.93,WSW,248,1.0,4.0,59,0.00,,,0.00,meteohub,2013-06-02 00:17:00,
2013-06-01 20:22:00,83.7,67.8,29.93,SSW,207,0.0,5.0,59,0.00,,,0.00,meteohub,2013-06-02 00:22:00,
2013-06-01 20:27:00,83.5,67.6,29.93,SW,227,1.0,5.0,59,0.00,,,0.00,meteohub,2013-06-02 00:27:00,
2013-06-01 20:32:00,83.3,68.0,29.93,SW,227,0.0,5.0,60,0.00,,,0.00,meteohub,2013-06-02 00:32:00,
2013-06-01 20:37:00,83.1,67.8,29.93,WSW,244,0.0,4.0,60,0.00,,,0.00,meteohub,2013-06-02 00:37:00,
2013-06-01 20:42:00,82.9,67.6,29.93,SW,221,0.0,4.0,60,0.00,,,0.00,meteohub,2013-06-02 00:42:00,
2013-06-01 20:47:00,82.8,68.0,29.93,NW,326,0.0,4.0,61,0.00,,,0.00,meteohub,2013-06-02 00:47:00,
2013-06-01 20:52:00,82.8,68.0,29.93,ENE,75,0.0,4.0,61,0.00,,,0.00,meteohub,2013-06-02 00:52:00,
2013-06-01 20:57:00,82.6,68.2,29.93,ENE,77,0.0,3.0,62,0.00,,,0.00,meteohub,2013-06-02 00:57:00,
2013-06-01 21:02:00,82.2,68.4,29.93,South,188,1.0,3.0,63,0.00,,,0.00,meteohub,2013-06-02 01:02:00,
2013-06-01 21:07:00,82.0,67.6,29.93,West,266,0.0,3.0,62,0.00,,,0.00,meteohub,2013-06-02 01:07:00,
2013-06-01 21:12:00,81.9,67.6,29.93,SSW,205,0.0,3.0,62,0.00,,,0.00,meteohub,2013-06-02 01:12:00,
2013-06-01 21:17:00,81.9,67.6,29.94,WSW,248,0.0,3.0,62,0.00,,,0.00,meteohub,2013-06-02 01:17:00,
2013-06-01 21:22:00,81.7,67.8,29.94,WSW,248,0.0,3.0,63,0.00,,,0.00,meteohub,2013-06-02 01:22:00,
2013-06-01 21:27:00,81.5,67.6,29.94,WSW,248,0.0,1.0,63,0.00,,,0.00,meteohub,2013-06-02 01:27:00,
2013-06-01 21:32:00,81.1,67.8,29.94,West,259,0.0,1.0,64,0.00,,,0.00,meteohub,2013-06-02 01:32:00,
2013-06-01 21:37:00,81.0,67.6,29.94,West,259,0.0,2.0,64,0.00,,,0.00,meteohub,2013-06-02 01:37:00,
2013-06-01 21:42:00,80.8,68.0,29.94,West,259,0.0,2.0,65,0.00,,,0.00,meteohub,2013-06-02 01:42:00,
2013-06-01 21:47:00,80.2,67.5,29.94,SSW,198,0.0,1.0,65,0.00,,,0.00,meteohub,2013-06-02 01:47:00,
2013-06-01 21:52:00,80.1,68.2,29.94,SSW,198,0.0,3.0,67,0.00,,,0.00,meteohub,2013-06-02 01:52:00,
2013-06-01 21:57:00,79.9,67.5,29.94,SSW,197,0.0,3.0,66,0.00,,,0.00,meteohub,2013-06-02 01:57:00,
2013-06-01 22:02:00,79.9,67.5,29.94,SW,216,0.0,2.0,66,0.00,,,0.00,meteohub,2013-06-02 02:02:00,
2013-06-01 22:07:00,79.7,66.9,29.94,South,186,2.0,2.0,65,0.00,,,0.00,meteohub,2013-06-02 02:07:00,
2013-06-01 22:12:00,79.9,67.1,29.94,South,182,1.0,4.0,65,0.00,,,0.00,meteohub,2013-06-02 02:12:00,
2013-06-01 22:17:00,79.9,67.5,29.94,SE,138,0.0,4.0,66,0.00,,,0.00,meteohub,2013-06-02 02:17:00,
2013-06-01 22:22:00,79.9,67.5,29.94,SE,138,0.0,4.0,66,0.00,,,0.00,meteohub,2013-06-02 02:22:00,
2013-06-01 22:27:00,79.5,67.6,29.94,SE,139,0.0,3.0,67,0.00,,,0.00,meteohub,2013-06-02 02:27:00,
2013-06-01 22:32:00,79.3,66.9,29.94,WNW,287,1.0,2.0,66,0.00,,,0.00,meteohub,2013-06-02 02:32:00,
2013-06-01 22:37:00,79.2,66.7,29.94,West,263,0.0,2.0,66,0.00,,,0.00,meteohub,2013-06-02 02:37:00,
2013-06-01 22:42:00,79.0,66.2,29.94,WNW,298,2.0,2.0,65,0.00,,,0.00,meteohub,2013-06-02 02:42:00,
2013-06-01 22:47:00,79.0,66.6,29.94,SSW,199,0.0,3.0,66,0.00,,,0.00,meteohub,2013-06-02 02:47:00,
2013-06-01 22:52:00,79.0,66.6,29.94,SSW,199,0.0,3.0,66,0.00,,,0.00,meteohub,2013-06-02 02:52:00,
2013-06-01 22:57:00,78.8,66.0,29.93,WNW,296,1.0,3.0,65,0.00,,,0.00,meteohub,2013-06-02 02:57:00,
2013-06-01 23:02:00,79.0,66.2,29.93,East,97,1.0,6.0,65,0.00,,,0.00,meteohub,2013-06-02 03:02:00,
2013-06-01 23:07:00,79.2,66.4,29.93,SW,217,0.0,6.0,65,0.00,,,0.00,meteohub,2013-06-02 03:07:00,
2013-06-01 23:12:00,79.2,66.4,29.93,ESE,115,0.0,6.0,65,0.00,,,0.00,meteohub,2013-06-02 03:12:00,
2013-06-01 23:17:00,79.2,66.4,29.93,NE,44,0.0,5.0,65,0.00,,,0.00,meteohub,2013-06-02 03:17:00,
2013-06-01 23:22:00,79.2,66.4,29.93,SSW,205,4.0,4.0,65,0.00,,,0.00,meteohub,2013-06-02 03:22:00,
2013-06-01 23:27:00,79.2,66.4,29.93,SW,225,6.0,6.0,65,0.00,,,0.00,meteohub,2013-06-02 03:27:00,
2013-06-01 23:32:00,79.2,66.4,29.93,South,189,0.0,7.0,65,0.00,,,0.00,meteohub,2013-06-02 03:32:00,
2013-06-01 23:37:00,79.3,66.0,29.93,NNE,12,2.0,7.0,64,0.00,,,0.00,meteohub,2013-06-02 03:37:00,
2013-06-01 23:42:00,79.2,65.5,29.93,South,180,0.0,7.0,63,0.00,,,0.00,meteohub,2013-06-02 03:42:00,
2013-06-01 23:47:00,79.2,65.5,29.93,East,94,0.0,4.0,63,0.00,,,0.00,meteohub,2013-06-02 03:47:00,
2013-06-01 23:52:00,79.2,65.8,29.93,WNW,284,3.0,6.0,64,0.00,,,0.00,meteohub,2013-06-02 03:52:00,
2013-06-01 23:57:00,79.0,65.8,29.93,SSW,210,2.0,6.0,64,0.00,,,0.00,meteohub,2013-06-02 03:57:00,